BEIDOU-3S IGSO-1S

Last updated on Sat Aug 22 2026 00:02:58 GMT+0000 (Coordinated Universal Time)

1 40549U 15019A 26232.64548654 -.00000160 00000+0 00000+0 0 9991 2 40549 49.0699 294.6809 0038969 199.6612 161.4233 1.00295134 41727
UTC large
Height (km)
Speed (km/s)
/
Latitude / Longitude
Inclination (degrees)
Orbital Period (minutes)
Azimuth
Elevation
Range (km)
Doppler Factor

Next 0 passes for location: London (51.5072 / 0.1276)

No passes found over London.
BEIDOU-3S IGSO-1S